• In Italy
  • List of Countries
  • For 7 days
  • Water Temperature
  • Satellite Maps
  • Weather Map
  • Weather Widgets
  • user-avatar
    Login

    Hourly Weather Córdoba

    Today, 23 September, Saturday

    Time Temperature Precipitation Wind Pressure Humidity
    00:00 +14°C° 0 mm 1 mps 728 mmHg 59%
    01:00 +14°C° 0 mm 1 mps 728 mmHg 60%
    02:00 +14°C° 0 mm 1 mps 728 mmHg 60%
    03:00 +13°C° 0 mm 1 mps 728 mmHg 61%
    04:00 +13°C° 0 mm 1 mps 728 mmHg 61%
    05:00 +13°C° 0 mm 1 mps 728 mmHg 62%
    06:00 +14°C° 0 mm 1 mps 728 mmHg 59%
    07:00 +16°C° 0 mm 2 mps 729 mmHg 55%
    08:00 +17°C° 0 mm 2 mps 729 mmHg 52%
    09:00 +19°C° 0 mm 3 mps 729 mmHg 46%
    10:00 +21°C° 0 mm 3 mps 729 mmHg 40%
    11:00 +23°C° 0 mm 4 mps 729 mmHg 34%
    12:00 +23°C° 0 mm 4 mps 728 mmHg 33%
    13:00 +25°C° 0 mm 5 mps 728 mmHg 31%
    14:00 +26°C° 0 mm 5 mps 727 mmHg 30%
    15:00 +25°C° 0 mm 5 mps 727 mmHg 32%
    16:00 +23°C° 0 mm 5 mps 726 mmHg 35%
    17:00 +22°C° 0 mm 5 mps 726 mmHg 37%
    18:00 +20°C° 0 mm 4 mps 726 mmHg 44%
    19:00 +19°C° 0 mm 3 mps 726 mmHg 50%
    20:00 +17°C° 0 mm 3 mps 726 mmHg 57%
    21:00 +16°C° 0 mm 2 mps 726 mmHg 60%
    22:00 +15°C° 0 mm 2 mps 726 mmHg 63%
    23:00 +15°C° 0 mm 2 mps 726 mmHg 67%

    Tomorrow, 24 September, Sunday

    Time Temperature Precipitation Wind Pressure Humidity
    00:00 +14°C° 0 mm 2 mps 726 mmHg 69%
    01:00 +14°C° 0 mm 2 mps 726 mmHg 71%
    02:00 +14°C° 0 mm 2 mps 725 mmHg 73%
    03:00 +13°C° 0 mm 2 mps 725 mmHg 75%
    04:00 +13°C° 0 mm 2 mps 725 mmHg 76%
    05:00 +13°C° 0 mm 2 mps 724 mmHg 78%
    06:00 +14°C° 0 mm 2 mps 725 mmHg 75%
    07:00 +16°C° 0 mm 3 mps 725 mmHg 71%
    08:00 +17°C° 0 mm 3 mps 725 mmHg 68%
    09:00 +19°C° 0 mm 4 mps 725 mmHg 63%
    10:00 +21°C° 0 mm 4 mps 725 mmHg 58%
    11:00 +23°C° 0 mm 5 mps 725 mmHg 53%
    12:00 +25°C° 0 mm 5 mps 725 mmHg 51%
    13:00 +26°C° 0 mm 5 mps 724 mmHg 48%
    14:00 +27°C° 0 mm 5 mps 724 mmHg 46%
    15:00 +27°C° 0 mm 5 mps 723 mmHg 48%
    16:00 +26°C° 0 mm 5 mps 723 mmHg 49%
    17:00 +26°C° 0 mm 5 mps 723 mmHg 51%
    18:00 +23°C° 0 mm 4 mps 723 mmHg 58%
    19:00 +21°C° 0 mm 3 mps 724 mmHg 64%
    20:00 +20°C° 0 mm 2 mps 724 mmHg 70%
    21:00 +19°C° 0 mm 2 mps 725 mmHg 72%
    22:00 +20°C° 0 mm 1 mps 725 mmHg 74%
    23:00 +19°C° 0 mm 1 mps 726 mmHg 76%

    Day after tomorrow, 25 September, Monday

    Time Temperature Precipitation Wind Pressure Humidity
    00:00 +19°C° 0 mm 1 mps 725 mmHg 77%
    01:00 +19°C° 0 mm 1 mps 725 mmHg 78%
    02:00 +19°C° 0 mm 1 mps 725 mmHg 79%
    03:00 +18°C° 0 mm 1 mps 725 mmHg 80%
    04:00 +16°C° 0 mm 0 mps 725 mmHg 81%
    05:00 +16°C° 0 mm 0 mps 725 mmHg 82%
    06:00 +18°C° 0 mm 0 mps 726 mmHg 76%
    07:00 +21°C° 0 mm 1 mps 726 mmHg 70%
    08:00 +23°C° 0 mm 1 mps 727 mmHg 65%
    09:00 +24°C° 0 mm 1 mps 727 mmHg 59%
    10:00 +26°C° 0 mm 2 mps 727 mmHg 54%
    11:00 +28°C° 0 mm 3 mps 727 mmHg 49%
    12:00 +29°C° 0.1 mm 3 mps 727 mmHg 48%
    13:00 +29°C° 0.1 mm 3 mps 726 mmHg 47%
    14:00 +30°C° 0.1 mm 4 mps 725 mmHg 46%
    15:00 +29°C° 0.1 mm 4 mps 725 mmHg 48%
    16:00 +29°C° 0.1 mm 4 mps 725 mmHg 51%
    17:00 +28°C° 0.1 mm 4 mps 724 mmHg 53%
    18:00 +27°C° 0 mm 4 mps 724 mmHg 59%
    19:00 +25°C° 0 mm 3 mps 725 mmHg 65%
    20:00 +22°C° 0 mm 3 mps 725 mmHg 71%
    21:00 +23°C° 0 mm 2 mps 725 mmHg 74%
    22:00 +21°C° 0 mm 2 mps 725 mmHg 77%
    23:00 +21°C° 0 mm 2 mps 725 mmHg 80%

    26 September, Tuesday

    Time Temperature Precipitation Wind Pressure Humidity
    00:00 +21°C° 0 mm 1 mps 725 mmHg 81%
    01:00 +21°C° 0 mm 1 mps 724 mmHg 82%
    02:00 +21°C° 0 mm 1 mps 724 mmHg 83%
    03:00 +21°C° 0 mm 1 mps 724 mmHg 85%
    04:00 +20°C° 0 mm 1 mps 723 mmHg 87%
    05:00 +20°C° 0 mm 1 mps 723 mmHg 89%
    06:00 +19°C° 0.4 mm 2 mps 724 mmHg 88%
    07:00 +20°C° 0.4 mm 2 mps 724 mmHg 87%
    08:00 +20°C° 0.4 mm 3 mps 724 mmHg 85%
    09:00 +21°C° 0.9 mm 3 mps 724 mmHg 85%
    10:00 +21°C° 0.9 mm 2 mps 724 mmHg 84%
    11:00 +21°C° 0.9 mm 2 mps 724 mmHg 84%
    12:00 +23°C° 0.6 mm 2 mps 723 mmHg 82%
    13:00 +23°C° 0.6 mm 2 mps 722 mmHg 81%
    14:00 +24°C° 0.6 mm 3 mps 722 mmHg 80%
    15:00 +22°C° 0.4 mm 3 mps 722 mmHg 82%
    16:00 +22°C° 0.4 mm 3 mps 722 mmHg 83%
    17:00 +22°C° 0.4 mm 3 mps 722 mmHg 85%
    18:00 +21°C° 0.5 mm 3 mps 722 mmHg 88%
    19:00 +21°C° 0.5 mm 3 mps 723 mmHg 92%
    20:00 +20°C° 0.5 mm 3 mps 724 mmHg 95%
    21:00 +19°C° 1 mm 4 mps 724 mmHg 94%
    22:00 +18°C° 1 mm 4 mps 724 mmHg 93%
    23:00 +17°C° 1 mm 5 mps 725 mmHg 92%

    27 September, Wednesday

    Time Temperature Precipitation Wind Pressure Humidity
    00:00 +16°C° 0.8 mm 5 mps 725 mmHg 91%
    01:00 +15°C° 0.8 mm 5 mps 725 mmHg 91%
    02:00 +14°C° 0.8 mm 5 mps 725 mmHg 90%
    03:00 +14°C° 0.3 mm 5 mps 725 mmHg 90%
    04:00 +13°C° 0.3 mm 4 mps 726 mmHg 90%
    05:00 +13°C° 0.3 mm 4 mps 726 mmHg 90%
    06:00 +13°C° 0.3 mm 4 mps 727 mmHg 90%
    07:00 +13°C° 0.3 mm 4 mps 727 mmHg 90%
    08:00 +12°C° 0.3 mm 4 mps 728 mmHg 90%
    09:00 +13°C° 0.1 mm 4 mps 728 mmHg 88%
    10:00 +13°C° 0.1 mm 3 mps 728 mmHg 87%
    11:00 +13°C° 0.1 mm 3 mps 728 mmHg 85%
    12:00 +13°C° 0.1 mm 3 mps 728 mmHg 85%
    13:00 +13°C° 0.1 mm 3 mps 727 mmHg 85%
    14:00 +15°C° 0.1 mm 2 mps 727 mmHg 85%
    15:00 +15°C° 0 mm 2 mps 727 mmHg 85%
    16:00 +15°C° 0 mm 2 mps 726 mmHg 85%
    17:00 +15°C° 0 mm 2 mps 726 mmHg 85%
    18:00 +15°C° 0 mm 2 mps 727 mmHg 87%
    19:00 +14°C° 0 mm 2 mps 727 mmHg 88%
    20:00 +14°C° 0 mm 1 mps 727 mmHg 90%
    21:00 +14°C° 0 mm 1 mps 727 mmHg 91%
    22:00 +14°C° 0 mm 1 mps 727 mmHg 91%
    23:00 +14°C° 0 mm 1 mps 727 mmHg 91%

    28 September, Thursday

    Time Temperature Precipitation Wind Pressure Humidity
    00:00 +14°C° 0 mm 1 mps 727 mmHg 91%
    01:00 +14°C° 0 mm 1 mps 727 mmHg 91%
    02:00 +14°C° 0 mm 1 mps 727 mmHg 91%
    03:00 +14°C° 0 mm 1 mps 726 mmHg 92%
    04:00 +13°C° 0 mm 1 mps 726 mmHg 92%
    05:00 +13°C° 0 mm 1 mps 726 mmHg 93%
    06:00 +14°C° 0 mm 1 mps 726 mmHg 91%
    07:00 +14°C° 0 mm 1 mps 727 mmHg 89%
    08:00 +15°C° 0 mm 1 mps 727 mmHg 87%
    09:00 +16°C° 0 mm 1 mps 727 mmHg 83%
    10:00 +17°C° 0 mm 2 mps 727 mmHg 79%
    11:00 +18°C° 0 mm 2 mps 727 mmHg 75%
    12:00 +18°C° 0 mm 2 mps 726 mmHg 74%
    13:00 +19°C° 0 mm 2 mps 726 mmHg 73%
    14:00 +19°C° 0 mm 3 mps 725 mmHg 72%
    15:00 +19°C° 0 mm 3 mps 725 mmHg 74%
    16:00 +19°C° 0 mm 3 mps 725 mmHg 77%
    17:00 +18°C° 0 mm 3 mps 724 mmHg 79%
    18:00 +18°C° 0 mm 2 mps 725 mmHg 83%
    19:00 +17°C° 0 mm 2 mps 725 mmHg 88%
    20:00 +16°C° 0 mm 1 mps 725 mmHg 92%
    21:00 +16°C° 0 mm 1 mps 725 mmHg 92%
    22:00 +16°C° 0 mm 1 mps 726 mmHg 92%
    23:00 +16°C° 0 mm 1 mps 726 mmHg 92%
    Show more